"Pseudo-MPEC" for C0MJVF2

Created 2019 May 21 8:07:07 UT using Find_Orb

Click here for an explanation of pseudo-MPECs

 
 Astrometry: 
     C0MJVF2  C2019 05 14.24620 15 39 37.56 -24 52 59.9    ~5E7M 19.0 GVNEOCPG96
     C0MJVF2  C2019 05 14.25188 15 39 35.20 -24 52 43.0    ~5E7M 18.8 GVNEOCPG96
     C0MJVF2  C2019 05 14.25758 15 39 32.85 -24 52 26.4    ~5E7M 19.4 GVNEOCPG96
     C0MJVF2  C2019 05 14.26326 15 39 30.39 -24 52 09.2    ~5E7M       VNEOCPG96
     C0MJVF2  C2019 05 14.31029115 39 10.61 -24 49 49.6    ~5E8M 19.2 GVNEOCPH01
     C0MJVF2  C2019 05 14.31355815 39 09.28 -24 49 39.7    ~5E8M 19.0 GVNEOCPH01
     C0MJVF2  C2019 05 14.32564715 39 04.32 -24 49 03.0    ~5E8M 18.9 GVNEOCPH01
     C0MJVF2  C2019 05 14.33028115 39 02.42 -24 48 48.9    ~5E8M 19.4 GVNEOCPH01
     C0MJVF2  C2019 05 14.37622 15 38 44.18 -24 46 27.4    ~5E9M       VNEOCPI52
     C0MJVF2  C2019 05 14.37657 15 38 44.02 -24 46 26.7    ~5E9M 19.3 GVNEOCPI52
     C0MJVF2  C2019 05 14.37693 15 38 43.90 -24 46 25.4    ~5E9M 19.6 GVNEOCPI52
     C0MJVF2 KC2019 05 14b7WwF[x8VSby[Astrometry$wU;vLL4ALs+uE.XfuA#Rr#3p;jI#E23
     C0MJVF2 KC2019 05 14C*[t:wpf#*-)#l%#7iu2F'^JoT?_Xw\XVV/Lv30]pg)Oj*gYYSZ;E23
     C0MJVF2 KC2019 05 14l^0#IXT+O3redacted;a_vg\cwsZd#//aPBt^5P`yPHcLS8_nQ65E23
     C0MJVF2  C2019 05 15.24934 15 34 06.19 -24 07 27.2    ~5F6b 19.8 GVNEOCPI52
     C0MJVF2  C2019 05 15.25046 15 34 05.78 -24 07 24.7    ~5F6b 19.6 GVNEOCPI52
     C0MJVF2  C2019 05 15.25159 15 34 05.45 -24 07 22.3    ~5F6b 20.1 GVNEOCPI52
     C0MJVF2  C2019 05 15.25272 15 34 05.08 -24 07 19.5    ~5F6b 19.4 GVNEOCPI52
     C0MJVF2  C2019 05 16.32386 15 29 32.24 -23 28 57.8    ~5G8b       VNEOCPG96
     C0MJVF2  C2019 05 16.32490 15 29 31.95 -23 28 55.0    ~5G8b 20.4 GVNEOCPG96
     C0MJVF2  C2019 05 16.32542 15 29 31.81 -23 28 54.3    ~5G8b       VNEOCPG96
     C0MJVF2 KC2019 05 16gyfa3+C:%M\Se9i;SBFqk/Dx!]GRM\@MI[:.y7HXe*ePwTFQwlHBL01
     C0MJVF2 KC2019 05 16UF@Vclick^Ab1$\8'q-5JD7(cun:s:JS,LO;MJKekgPIJi*Av?ltL01
     C0MJVF2 KC2019 05 160N^,vxYSl)`R/6m6`!Q+R!/u++hereq%QEi%)OV[./Mko%U_LkEjL01
     C0MJVF2 KC2019 05 16mQPE,_@kDkpu6:U@i1!xtOCC.x)[forj(%]YU(eo1explanationL01

Station data:
(E23) Arcadia  (S33.621199 E151.071190)  Australia/NSW.
(G96) Mt. Lemmon Survey  (N32.442754 W110.788720)  US/Arizona.  Observers T.
   A. Pruyne, B. M. Africano, E. J. Christensen, G. A. Farneth, D. C. Fuls,
   A. R. Gibbs, A. D. Grauer, H. Groeller, J. A. Johnson, R. A. Kowalski, S.
   M. Larson, G. J. Leonard, R. L. Seaman, F. C. Shelly. 1.5-m reflector +
   10K CCD.
(H01) Magdalena Ridge Observatory, Socorro  (N33.984833 W107.189333)  US/New
   Mexico.  Observers W. H. Ryan, E. V. Ryan. Measurer W. H. Ryan. 2.4-m
   f/8.9 reflector + CCD.
(I52) Steward Observatory, Mt. Lemmon Station  (N32.442547 W110.788920)
   US/Arizona.  Observers T. A. Pruyne, B. M. Africano, E. J. Christensen, G.
   A. Farneth, D. C. Fuls, A. R. Gibbs, A. D. Grauer, H. Groeller, J. A.
   Johnson, R. A. Kowalski, S. M. Larson, G. J. Leonard, R. L. Seaman, F. C.
   Shelly. 1.0-m reflector + CCD.
(L01) Višnjan Observatory, Tičan  (N45.290900 E13.749300)  Croatia.
   Observers K. Korlević, E. Pettarin. Measurer E. Pettarin. 1.0-m f/2.9
   reflector + CCD.

Orbital elements:  C0MJVF2
   Perihelion 2019 Mar 20.948642 +/- 0.0656 TT = 22:46:02 (JD 2458563.448642)
Epoch 2019 May 16.0 TT = JDT 2458619.5   Earth MOID: 0.0052   Ve: 0.0071
M  18.87370734 +/- 0.17             Ma: 0.0021                AutoNEOCP
n   0.33672167 +/- 0.0028           Peri.  107.07731 +/- 0.023
a   2.04623416 +/- 0.0114           Node    29.50381 +/- 0.027
e   0.7144798 +/- 0.00192           Incl.    0.97674 +/- 0.0024
P   2.93                   H 24.3   G  0.15   U  8.8  
q 0.58424112 +/- 0.000682    Q 3.50822720 +/- 0.0232
From 25 observations 2019 May 14-16; mean residual 0".33
Residuals in arcseconds: 
190514 G96  .16-  .00     190514 I52  .03-  .13-    190516 G96  .50+  .01-    
190514 G96  .14-  .01+    190514 I52  .31+  .07+    190516 G96  .13+  .77+    
190514 G96  .11+  .37-    190514 E23  .10+  .11-    190516 G96  .01+  .46+    
190514 G96  1.3-  .10-    190514 E23  .27+  .11+    190516 L01  .40-  .40-    
190514 H01  .01+  .08-    190514 E23  .55+  .79+    190516 L01  .03-  .44-    
190514 H01  .18+  .08-    190515 I52  .10+  .01-    190516 L01  .06+  .22+    
190514 H01  .13+  .11-    190515 I52  .59-  .13-    190516 L01  .09-  .35-    
190514 H01  .06+  .11-    190515 I52  .14-  .37-    
190514 I52  .24+  .24+    190515 I52  .24-  .22-    

Ephemerides (geocentric):
Date (UTC) HH   RA              Dec         delta   r     elong  mag " sig PA
---- -- -- --  -------------   -----------  ------ ------ -----  --- ---- ---
2019 05 21 08  15 17 53.443   -21 42 37.45  .16864 1.1793 172.3 21.3 .449 150
2019 05 21 09  15 17 49.861   -21 42 02.98  .16915 1.1798 172.2 21.3 .451 150
2019 05 21 10  15 17 46.303   -21 41 28.71  .16966 1.1803 172.2 21.3 .454 150
2019 05 21 11  15 17 42.768   -21 40 54.64  .17017 1.1808 172.1 21.3 .456 150
2019 05 21 12  15 17 39.258   -21 40 20.76  .17068 1.1813 172.1 21.3 .458 150
2019 05 21 13  15 17 35.770   -21 39 47.07  .17120 1.1818 172.0 21.3 .461 150
2019 05 21 14  15 17 32.306   -21 39 13.58  .17171 1.1823 172.0 21.3 .463 150
2019 05 21 15  15 17 28.865   -21 38 40.27  .17222 1.1828 171.9 21.3 .465 150
2019 05 21 16  15 17 25.447   -21 38 07.15  .17273 1.1833 171.9 21.3 .468 150
2019 05 21 17  15 17 22.052   -21 37 34.22  .17325 1.1838 171.9 21.3 .470 150
2019 05 21 18  15 17 18.679   -21 37 01.47  .17376 1.1843 171.8 21.4 .472 150
2019 05 21 19  15 17 15.329   -21 36 28.91  .17427 1.1848 171.8 21.4 .474 150
2019 05 21 20  15 17 12.001   -21 35 56.52  .17478 1.1853 171.7 21.4 .476 150
2019 05 21 21  15 17 08.695   -21 35 24.32  .17530 1.1858 171.7 21.4 .479 150
2019 05 21 22  15 17 05.411   -21 34 52.30  .17581 1.1863 171.6 21.4 .481 150
2019 05 21 23  15 17 02.148   -21 34 20.45  .17632 1.1868 171.6 21.4 .483 150
2019 05 22 00  15 16 58.907   -21 33 48.79  .17684 1.1873 171.5 21.4 .485 150
2019 05 22 01  15 16 55.687   -21 33 17.29  .17735 1.1878 171.5 21.4 .487 150
2019 05 22 02  15 16 52.489   -21 32 45.97  .17787 1.1883 171.4 21.4 .490 150
2019 05 22 03  15 16 49.311   -21 32 14.82  .17838 1.1888 171.4 21.4 .492 150
2019 05 22 04  15 16 46.154   -21 31 43.85  .17889 1.1893 171.3 21.4 .494 150
2019 05 22 05  15 16 43.018   -21 31 13.04  .17941 1.1898 171.3 21.5 .496 150
2019 05 22 06  15 16 39.903   -21 30 42.40  .17992 1.1903 171.2 21.5 .498 150
2019 05 22 07  15 16 36.807   -21 30 11.93  .18044 1.1908 171.2 21.5 .500 150
2019 05 22 08  15 16 33.732   -21 29 41.62  .18095 1.1913 171.1 21.5 .502 150
2019 05 22 09  15 16 30.678   -21 29 11.48  .18147 1.1918 171.1 21.5 .504 150
2019 05 22 10  15 16 27.643   -21 28 41.50  .18198 1.1923 171.0 21.5 .506 150
2019 05 22 11  15 16 24.627   -21 28 11.68  .18250 1.1928 171.0 21.5 .508 150
2019 05 22 12  15 16 21.632   -21 27 42.03  .18301 1.1933 170.9 21.5 .510 150
2019 05 22 13  15 16 18.655   -21 27 12.53  .18353 1.1938 170.9 21.5 .512 150
2019 05 22 14  15 16 15.699   -21 26 43.19  .18405 1.1943 170.8 21.5 .514 150
2019 05 22 15  15 16 12.761   -21 26 14.01  .18456 1.1948 170.8 21.5 .516 150
2019 05 22 16  15 16 09.842   -21 25 44.99  .18508 1.1953 170.7 21.6 .518 151
2019 05 22 17  15 16 06.942   -21 25 16.12  .18559 1.1958 170.7 21.6 .520 151
2019 05 22 18  15 16 04.061   -21 24 47.40  .18611 1.1963 170.6 21.6 .522 151
2019 05 22 19  15 16 01.199   -21 24 18.83  .18663 1.1968 170.6 21.6 .524 151
2019 05 22 20  15 15 58.355   -21 23 50.42  .18714 1.1973 170.6 21.6 .526 151
2019 05 22 21  15 15 55.529   -21 23 22.16  .18766 1.1978 170.5 21.6 .528 151
2019 05 22 22  15 15 52.722   -21 22 54.04  .18818 1.1983 170.5 21.6 .529 151
2019 05 22 23  15 15 49.933   -21 22 26.08  .18869 1.1988 170.4 21.6 .531 151
2019 05 23 00  15 15 47.161   -21 21 58.26  .18921 1.1993 170.4 21.6 .533 151
2019 05 23 01  15 15 44.408   -21 21 30.59  .18973 1.1998 170.3 21.6 .535 151
2019 05 23 02  15 15 41.672   -21 21 03.06  .19025 1.2003 170.3 21.6 .537 151
2019 05 23 03  15 15 38.954   -21 20 35.68  .19076 1.2008 170.2 21.6 .539 151
2019 05 23 04  15 15 36.253   -21 20 08.43  .19128 1.2013 170.2 21.7 .540 151
2019 05 23 05  15 15 33.570   -21 19 41.33  .19180 1.2018 170.1 21.7 .542 151
2019 05 23 06  15 15 30.903   -21 19 14.38  .19232 1.2023 170.1 21.7 .544 151
2019 05 23 07  15 15 28.254   -21 18 47.56  .19284 1.2028 170.0 21.7 .546 151